GW5002 Weather Reports


Display with metric or nautical units.
time (UTC)temp
F
wind
direction
speed
MPH
gust
MPH
rain 1hr
in
rain 24hr
in
rain mn
in
humidity
%
barometer
mb
20260509123030 0 0.0 0.0 0.00 0.00 0.00 1013.6
20260509121532 0 0.0 0.0 0.00 0.00 0.00 1013.5
20260509120030 0 0.0 0.0 0.00 0.00 0.00 1013.3
20260509114528 0 0.0 0.0 0.00 0.00 0.00 1013.2
20260509113028 0 0.0 0.0 0.00 0.00 0.00 1013.2
20260509111527 0 0.0 0.0 0.00 0.00 0.00 1013.0
20260509110029 0 0.0 0.0 0.00 0.00 0.00 1012.7
20260509104536 0 0.0 0.0 0.00 0.00 0.00 1012.5
20260509103030 0 0.0 0.0 0.00 0.00 0.00 1012.3
20260509101530 0 0.0 0.0 0.00 0.00 0.00 1012.3
20260509100039 0 0.0 0.0 0.00 0.00 0.00 1012.2
20260509094534 0 0.0 0.0 0.00 0.00 0.00 1012.4
20260509093031 0 0.0 0.0 0.00 0.00 0.00 1012.3
20260509091529 0 0.0 0.0 0.00 0.00 0.00 1012.5
20260509090030 0 0.0 0.0 0.00 0.00 0.00 1012.7
20260509084532 0 0.0 0.0 0.00 0.00 0.00 1012.7
20260509083028 0 0.0 0.0 0.00 0.00 0.00 1012.9
20260509081541 0 0.0 0.0 0.00 0.00 0.00 1013.1
20260509080032 0 0.0 0.0 0.00 0.00 0.00 1012.9
20260509074535 0 0.0 0.0 0.00 0.00 0.00 1013.2
20260509073028 0 0.0 0.0 0.00 0.00 0.00 1013.0
20260509071528 0 0.0 0.0 0.00 0.00 0.00 1012.5
20260509070031 0 0.0 0.0 0.00 0.00 0.00 1012.7
20260509064533 0 0.0 0.0 0.00 0.00 0.00 1013.1
20260509063031 0 0.0 0.0 0.00 0.00 0.00 1013.6
20260509061543 0 0.0 0.0 0.00 0.00 0.00 1013.4
20260509060030 0 0.0 0.0 0.00 0.00 0.00 1013.8
20260509054531 0 0.0 0.0 0.00 0.00 0.00 1013.8
20260509053035 0 0.0 0.0 0.00 0.00 0.00 1013.7
20260509051534 0 0.0 0.0 0.00 0.00 0.00 1014.5
20260509050046 0 0.0 0.0 0.00 0.00 0.00 1015.0
20260509044541 0 0.0 0.0 0.00 0.00 0.00 1014.9
20260509043031 0 0.0 0.0 0.00 0.00 0.00 1014.7
20260509041533 0 0.0 0.0 0.00 0.00 0.00 1014.9
20260509040031 0 0.0 0.0 0.00 0.00 0.00 1015.5
20260509034532 0 0.0 0.0 0.00 0.00 0.00 1015.6
20260509033031 67 0.0 0.0 0.00 0.00 0.00 1015.5
20260509031513 67 92 0.0 0.0 0.00 0.00 0.00 78 1015.6
20260509030016 67 113 0.0 0.0 0.00 0.00 0.00 78 1015.7
20260509024520 67 113 0.0 0.0 0.00 0.00 0.00 78 1015.7
20260509023027 67 76 0.0 0.0 0.00 0.00 0.00 77 1015.4
20260509021514 67 76 0.0 0.0 0.00 0.00 0.00 77 1015.3
20260509020015 67 107 0.0 0.0 0.00 0.00 0.00 76 1015.4
20260509014517 67 63 0.0 0.0 0.00 0.00 0.00 76 1015.3
20260509013034 67 90 0.0 0.0 0.00 0.00 0.00 76 1015.1
20260509011526 67 74 0.0 0.0 0.00 0.00 0.00 76 1015.2
20260509010011 67 71 0.0 0.0 0.00 0.00 0.00 75 1015.2
20260509004517 66 101 0.0 0.0 0.00 0.00 0.00 75 1015.0
20260509003021 66 138 0.0 0.0 0.00 0.00 0.00 76 1014.9
20260509001527 66 47 0.0 0.0 0.00 0.00 0.00 75 1014.8
20260509000026 67 119 0.0 0.0 0.00 0.00 0.00 75 1014.9
20260508234518 67 131 0.0 0.0 0.00 0.00 0.00 74 1014.6
20260508233018 67 99 0.0 0.0 0.00 0.00 0.00 74 1014.7
20260508231520 67 76 0.0 0.0 0.00 0.00 0.00 74 1015.0
20260508230045 67 120 0.0 0.0 0.00 0.00 0.00 73 1014.9
20260508224553 67 125 0.0 0.0 0.00 0.00 0.00 73 1014.7
20260508223024 67 78 0.0 0.0 0.00 0.00 0.00 72 1014.7
20260508221519 67 58 0.0 0.0 0.00 0.00 0.00 73 1014.8
20260508220026 67 101 0.0 0.0 0.00 0.00 0.00 72 1014.9
20260508214527 67 91 0.0 0.0 0.00 0.00 0.00 72 1014.7
20260508213028 67 147 0.0 0.0 0.00 0.00 0.00 71 1014.9
20260508211520 67 96 0.0 0.0 0.00 0.00 0.00 71 1015.1
20260508210004 67 103 0.0 0.0 0.00 0.00 0.00 71 1014.7
20260508204513 67 114 0.0 0.0 0.00 0.00 0.00 69 1014.7
20260508203004 68 117 0.0 0.0 0.00 0.00 0.00 69 1014.7
20260508201504 68 115 0.0 0.0 0.00 0.00 0.00 68 1014.9
20260508200005 69 94 0.0 0.0 0.00 0.00 0.00 64 1015.2
20260508194506 70 133 0.0 0.0 0.00 0.00 0.00 65 1015.5
20260508193007 70 84 0.0 0.0 0.00 0.01 0.00 66 1015.3
20260508191509 69 132 0.0 0.0 0.00 0.05 0.00 64 1015.5
20260508190014 69 82 0.0 0.0 0.00 0.06 0.00 65 1015.6
20260508184505 71 91 0.0 0.0 0.00 0.06 0.00 63 1015.6
20260508183010 71 78 0.0 0.0 0.00 0.06 0.00 61 1015.7
20260508181519 71 103 0.0 0.0 0.00 0.06 0.00 60 1015.8
20260508180008 71 114 0.0 0.0 0.00 0.06 0.00 60 1016.1
20260508174512 72 117 0.0 0.0 0.00 0.06 0.00 57 1016.0
20260508173008 72 111 0.0 0.0 0.00 0.06 0.00 55 1016.2
20260508171517 72 134 0.0 0.0 0.00 0.06 0.00 54 1016.2
20260508170016 72 57 0.0 0.0 0.00 0.06 0.00 52 1016.3
20260508164512 71 335 0.0 0.0 0.00 0.06 0.00 51 1016.5
20260508163013 71 71 0.0 0.0 0.00 0.06 0.00 51 1016.7
20260508161513 71 61 0.0 0.0 0.00 0.06 0.00 55 1017.0
20260508160012 71 72 0.0 0.0 0.00 0.06 0.00 52 1017.2
20260508154516 70 134 0.0 0.0 0.00 0.06 0.00 52 1017.4
20260508153021 70 63 0.0 0.0 0.00 0.06 0.00 53 1017.4
20260508151531 69 61 0.0 0.0 0.00 0.06 0.00 56 1017.3
20260508150017 69 85 0.0 0.0 0.00 0.06 0.00 58 1017.4
20260508144519 68 92 0.0 0.0 0.00 0.06 0.00 58 1017.2
20260508143018 67 94 0.0 0.0 0.00 0.06 0.00 58 1017.3
20260508141519 66 40 0.0 0.0 0.00 0.06 0.00 63 1016.9
20260508140020 64 5 0.0 0.0 0.00 0.06 0.00 64 1017.1
20260508134519 64 56 0.0 0.0 0.00 0.06 0.00 67 1016.8
20260508133021 64 99 0.0 0.0 0.00 0.06 0.00 69 1016.7
20260508131519 63 42 0.0 0.0 0.00 0.06 0.00 73 1016.5
20260508130018 62 33 0.0 0.0 0.00 0.06 0.00 75 1016.4
20260508124528 62 28 0.0 0.0 0.00 0.06 0.00 77 1016.2